{"data":{"norad_id":66474,"intl_designator":"2025-262U","name":"STARLINK-35620","alt_names":[],"object_type":"PAYLOAD","status":"ACTIVE","operator":null,"country":"US","launch_date":"2025-11-15","launch_site_code":"AFETR","launch_vehicle":null,"mission":null,"orbit_class":"UNKNOWN","rcs_meters":null,"size_class":null,"mass_kg":null,"dimensions":null,"purposes":["comms"],"wikipedia_slug":null,"has_3d_model":false,"image_url":null,"decayed_at":null,"tle_current":{"epoch":"2026-09-20T09:08:08.504736Z","epoch_age_seconds":99647,"freshness":"FRESH","line1":"1 66474U 25262U   26263.38065399  .00011770  00000+0  43646-3 0  9997","line2":"2 66474  43.0009 276.5027 0001507 261.5042  98.5639 15.27586120 48680","mean_motion":15.2758612,"eccentricity":0.0001507,"inclination_deg":43.0009,"raan_deg":276.5027,"arg_perigee_deg":261.5042,"mean_anomaly_deg":98.5639,"bstar":0.00043646,"rev_number":4868,"period_min":94.266371050818,"perigee_km":481.99679263614,"apogee_km":484.06474860221,"semimajor_km":6861.1677706192,"source":"CELESTRAK","updated_at":"2026-09-21T09:00:35.916164Z"}}}